| time (UTC) | temp F | wind direction | speed knots | gust knots | rain 1hr in | rain 24hr in | rain mn in | humidity % | barometer mb |
| 20260905131604 | 71 | 44 | 1.7 | 5.2 | 0.00 | 0.19 | 0.00 | 95 | 1015.2 |
| 20260905130059 | 70 | 86 | 0.9 | 2.6 | 0.00 | 0.19 | 0.00 | 95 | 1015.6 |
| 20260905124601 | 70 | 78 | 0.9 | 3.5 | 0.00 | 0.19 | 0.00 | 95 | 1015.0 |
| 20260905123114 | 70 | 65 | 1.7 | 5.2 | 0.00 | 0.19 | 0.00 | 96 | 1014.9 |
| 20260905121559 | 70 | 81 | 3.5 | 7.8 | 0.00 | 0.19 | 0.00 | 96 | 1014.4 |
| 20260905120106 | 70 | 32 | 2.6 | 5.2 | 0.00 | 0.19 | 0.00 | 96 | 1014.2 |
| 20260905114605 | 69 | 56 | 2.6 | 6.1 | 0.00 | 0.20 | 0.00 | 96 | 1014.1 |
| 20260905113107 | 69 | 33 | 1.7 | 5.2 | 0.00 | 0.20 | 0.00 | 96 | 1013.7 |
| 20260905111604 | 69 | 94 | 2.6 | 6.1 | 0.00 | 0.20 | 0.00 | 96 | 1013.4 |
| 20260905110058 | 69 | 86 | 1.7 | 4.3 | 0.00 | 0.20 | 0.00 | 96 | 1013.3 |
| 20260905104605 | 69 | 47 | 0.9 | 3.5 | 0.00 | 0.24 | 0.00 | 96 | 1013.1 |
| 20260905103106 | 69 | 68 | 0.9 | 2.6 | 0.00 | 0.24 | 0.00 | 96 | 1013.2 |
| 20260905101559 | 69 | 81 | 0.0 | 1.7 | 0.00 | 0.24 | 0.00 | 96 | 1013.2 |
| 20260905100109 | 69 | 0 | 0.0 | 0.9 | 0.00 | 0.24 | 0.00 | 96 | 1013.0 |
| 20260905094607 | 69 | 0 | 0.0 | 0.0 | 0.00 | 0.24 | 0.00 | 96 | 1013.0 |
| 20260905093104 | 69 | 0 | 0.0 | 0.9 | 0.00 | 0.24 | 0.00 | 96 | 1013.0 |
| 20260905091604 | 69 | 0 | 0.0 | 0.9 | 0.00 | 0.24 | 0.00 | 96 | 1013.0 |
| 20260905090059 | 69 | 0 | 0.0 | 1.7 | 0.00 | 0.24 | 0.00 | 96 | 1013.1 |
| 20260905084609 | 69 | 0 | 0.0 | 0.0 | 0.00 | 0.24 | 0.00 | 95 | 1012.9 |
| 20260905083102 | 69 | 0 | 0.0 | 0.0 | 0.00 | 0.24 | 0.00 | 95 | 1013.0 |
| 20260905081557 | 69 | 0 | 0.0 | 0.0 | 0.00 | 0.24 | 0.00 | 95 | 1012.9 |
| 20260905080139 | 69 | 0 | 0.0 | 0.0 | 0.00 | 0.24 | 0.00 | 95 | 1013.0 |
| 20260905074557 | 70 | 0 | 0.0 | 0.0 | 0.00 | 0.24 | 0.00 | 95 | 1013.1 |
| 20260905073100 | 70 | 0 | 0.0 | 0.0 | 0.00 | 0.24 | 0.00 | 95 | 1013.1 |
| 20260905071606 | 70 | 0 | 0.0 | 0.9 | 0.00 | 0.24 | 0.00 | 95 | 1013.1 |
| 20260905070101 | 70 | 0 | 0.0 | 1.7 | 0.00 | 0.24 | 0.00 | 95 | 1013.0 |
| 20260905064603 | 70 | 0 | 0.0 | 0.0 | 0.00 | 0.24 | 0.00 | 94 | 1013.0 |
| 20260905063059 | 71 | 0 | 0.0 | 0.0 | 0.00 | 0.24 | 0.00 | 94 | 1012.9 |
| 20260905061600 | 72 | 0 | 0.0 | 0.0 | 0.00 | 0.24 | 0.00 | 95 | 1013.0 |
| 20260905060108 | 71 | 0 | 0.0 | 0.0 | 0.00 | 0.24 | 0.00 | 94 | 1013.0 |
| 20260905054606 | 71 | 0 | 0.0 | 0.9 | 0.00 | 0.24 | 0.00 | 94 | 1013.2 |
| 20260905053110 | 72 | 0 | 0.0 | 0.9 | 0.00 | 0.24 | 0.00 | 93 | 1013.2 |
| 20260905051559 | 72 | 72 | 0.0 | 0.9 | 0.00 | 0.24 | 0.00 | 93 | 1013.4 |
| 20260905044607 | 72 | 50 | 0.0 | 0.9 | 0.00 | 0.24 | 0.24 | 93 | 1013.6 |
| 20260905043111 | 72 | 0 | 0.0 | 0.9 | 0.00 | 0.24 | 0.24 | 92 | 1013.5 |
| 20260905041602 | 73 | 0 | 0.0 | 1.7 | 0.00 | 0.24 | 0.24 | 93 | 1013.4 |
| 20260905040105 | 73 | 84 | 0.0 | 0.9 | 0.00 | 0.24 | 0.24 | 92 | 1013.3 |
| 20260905034603 | 73 | 0 | 0.9 | 2.6 | 0.00 | 0.24 | 0.24 | 92 | 1013.2 |
| 20260905033058 | 73 | 93 | 0.9 | 2.6 | 0.00 | 0.24 | 0.24 | 92 | 1013.4 |
| 20260905031557 | 73 | 110 | 2.6 | 3.5 | 0.00 | 0.24 | 0.24 | 91 | 1013.5 |
| 20260905030100 | 74 | 82 | 0.9 | 3.5 | 0.00 | 0.24 | 0.24 | 91 | 1013.5 |
| 20260905024557 | 74 | 65 | 0.9 | 4.3 | 0.00 | 0.24 | 0.24 | 90 | 1013.6 |
| 20260905023101 | 75 | 83 | 1.7 | 4.3 | 0.00 | 0.24 | 0.24 | 89 | 1013.7 |
| 20260905021600 | 75 | 88 | 2.6 | 4.3 | 0.00 | 0.24 | 0.24 | 88 | 1013.7 |
| 20260905020058 | 75 | 89 | 2.6 | 5.2 | 0.00 | 0.24 | 0.24 | 88 | 1013.3 |
| 20260905014557 | 76 | 82 | 0.9 | 2.6 | 0.00 | 0.24 | 0.24 | 88 | 1013.4 |
| 20260905013100 | 76 | 58 | 4.3 | 7.8 | 0.00 | 0.24 | 0.24 | 87 | 1013.3 |
| 20260905011619 | 77 | 68 | 4.3 | 7.0 | 0.00 | 0.24 | 0.24 | 87 | 1013.5 |
| 20260905010058 | 77 | 99 | 5.2 | 7.8 | 0.00 | 0.24 | 0.24 | 86 | 1013.0 |
| 20260905004600 | 80 | 79 | 5.2 | 6.1 | 0.00 | 0.24 | 0.24 | 87 | 1012.5 |
| 20260905003102 | 80 | 79 | 0.0 | 0.9 | 0.00 | 0.24 | 0.24 | 89 | 1012.2 |
| 20260905001610 | 80 | 0 | 0.0 | 0.9 | 0.00 | 0.24 | 0.24 | 90 | 1011.9 |
| 20260905000104 | 81 | 0 | 0.0 | 0.9 | 0.00 | 0.24 | 0.24 | 90 | 1011.9 |
| 20260904234559 | 81 | 0 | 0.0 | 0.0 | 0.00 | 0.24 | 0.24 | 89 | 1012.1 |
| 20260904233107 | 82 | 0 | 0.0 | 0.9 | 0.00 | 0.24 | 0.24 | 88 | 1012.1 |
| 20260904231601 | 83 | 0 | 0.0 | 0.0 | 0.00 | 0.24 | 0.24 | 86 | 1011.6 |
| 20260904230101 | 84 | 0 | 0.0 | 0.0 | 0.00 | 0.24 | 0.24 | 83 | 1011.8 |
| 20260904224600 | 84 | 0 | 0.0 | 0.0 | 0.00 | 0.24 | 0.24 | 82 | 1011.7 |
| 20260904223103 | 84 | 0 | 0.0 | 0.0 | 0.00 | 0.24 | 0.24 | 80 | 1011.7 |
| 20260904221605 | 85 | 0 | 0.0 | 0.9 | 0.00 | 0.24 | 0.24 | 77 | 1011.7 |
| 20260904220109 | 85 | 248 | 0.9 | 2.6 | 0.00 | 0.24 | 0.24 | 75 | 1011.7 |
| 20260904214603 | 86 | 250 | 1.7 | 7.0 | 0.00 | 0.24 | 0.24 | 74 | 1011.7 |
| 20260904213102 | 85 | 283 | 0.9 | 4.3 | 0.00 | 0.24 | 0.24 | 75 | 1011.7 |
| 20260904211606 | 86 | 238 | 2.6 | 7.8 | 0.00 | 0.24 | 0.24 | 72 | 1011.7 |
| 20260904210104 | 85 | 273 | 0.9 | 4.3 | 0.00 | 0.24 | 0.24 | 75 | 1011.5 |
| 20260904204601 | 85 | 252 | 0.0 | 1.7 | 0.00 | 0.24 | 0.24 | 75 | 1011.5 |
| 20260904203102 | 85 | 236 | 0.9 | 3.5 | 0.00 | 0.24 | 0.24 | 76 | 1011.6 |
| 20260904201620 | 84 | 243 | 0.9 | 2.6 | 0.00 | 0.24 | 0.24 | 74 | 1011.8 |
| 20260904194559 | 84 | 268 | 0.0 | 1.7 | 0.00 | 0.24 | 0.24 | 75 | 1012.3 |
| 20260904193107 | 83 | 0 | 0.0 | 1.7 | 0.00 | 0.24 | 0.24 | 75 | 1012.5 |
| 20260904191602 | 83 | 321 | 0.0 | 1.7 | 0.00 | 0.24 | 0.24 | 77 | 1012.8 |
| 20260904184605 | 82 | 264 | 1.7 | 4.3 | 0.00 | 0.25 | 0.24 | 76 | 1012.7 |
| 20260904183115 | 81 | 276 | 0.9 | 2.6 | 0.00 | 0.25 | 0.24 | 78 | 1012.7 |
| 20260904181610 | 79 | 284 | 0.9 | 4.3 | 0.00 | 0.25 | 0.24 | 82 | 1013.3 |
| 20260904180112 | 77 | 277 | 0.0 | 2.6 | 0.00 | 0.25 | 0.24 | 86 | 1013.4 |
| 20260904174611 | 74 | 273 | 0.9 | 2.6 | 0.00 | 0.25 | 0.24 | 91 | 1013.7 |
| 20260904173124 | 72 | 267 | 0.0 | 2.6 | 0.00 | 0.25 | 0.24 | 93 | 1013.6 |
| 20260904171608 | 71 | 53 | 0.0 | 2.6 | 0.00 | 0.25 | 0.24 | 93 | 1013.5 |
| 20260904170108 | 71 | 129 | 0.9 | 5.2 | 0.00 | 0.25 | 0.24 | 93 | 1013.2 |
| 20260904164615 | 71 | 64 | 0.9 | 4.3 | 0.12 | 0.47 | 0.24 | 94 | 1013.7 |
| 20260904163101 | 70 | 297 | 0.9 | 7.0 | 0.19 | 0.47 | 0.24 | 93 | 1014.4 |
| 20260904161618 | 70 | 56 | 1.7 | 4.3 | 0.19 | 0.47 | 0.24 | 93 | 1015.0 |
| 20260904160059 | 70 | 47 | 1.7 | 7.8 | 0.19 | 0.47 | 0.24 | 92 | 1015.0 |
| 20260904154558 | 71 | 113 | 2.6 | 7.0 | 0.07 | 0.91 | 0.12 | 89 | 1016.1 |
| 20260904153108 | 72 | 101 | 3.5 | 5.2 | 0.00 | 0.84 | 0.05 | 88 | 1016.8 |
| 20260904151601 | 71 | 114 | 4.3 | 7.8 | 0.00 | 0.84 | 0.05 | 88 | 1016.2 |
| 20260904150105 | 71 | 65 | 0.9 | 8.7 | 0.00 | 0.84 | 0.05 | 88 | 1016.1 |
| 20260904144621 | 71 | 107 | 3.5 | 5.2 | 0.00 | 0.86 | 0.05 | 89 | 1015.7 |
| 20260904143104 | 71 | 117 | 5.2 | 11.3 | 0.00 | 0.86 | 0.05 | 89 | 1016.0 |
| 20260904141604 | 70 | 39 | 4.3 | 13.9 | 0.00 | 0.86 | 0.05 | 90 | 1016.0 |
| 20260904140106 | 70 | 34 | 7.0 | 12.2 | 0.00 | 0.86 | 0.05 | 91 | 1016.1 |
| 20260904134608 | 70 | 65 | 4.3 | 9.6 | 0.00 | 0.86 | 0.05 | 91 | 1016.5 |
| 20260904133103 | 70 | 119 | 1.7 | 6.1 | 0.00 | 0.86 | 0.05 | 91 | 1016.6 |